Mattoon, IL

10:48 AM CDT on October 17, 2019 (GMT -0500)
Coles County Memorial

Weather History for KMTO - May, 2019

Change the Weather History Date:

Monday, May 6, 2019

  Actual Average Record
Temperature  
Mean Temperature 62 °F 60 °F  
Max Temperature 75 °F 70 °F 89 °F (1949)
Min Temperature 49 °F 50 °F 34 °F (1968)
Degree Days  
Heating Degree Days 3 6  
Month to date heating degree days 37 38  
Since 1 July heating degree days 5424 5300  
Cooling Degree Days 0 1  
Month to date cooling degree days 1 6  
Year to date cooling degree days 6 20  
Growing Degree Days 12 (Base 50)    
Moisture  
Dew Point 51 °F    
Average Humidity 67    
Maximum Humidity 89    
Minimum Humidity 44    
Precipitation  
Precipitation 0.00 in 0.15 in 2.53 in (1967)
Month to date precipitation 0.47 0.94  
Year to date precipitation 9.49 10.92  
Sea Level Pressure  
Sea Level Pressure 30.00 in    
Wind  
Wind Speed 7 mph (South)    
Max Wind Speed 15 mph    
Max Gust Speed 23 mph    
Visibility 10 miles    
Events      
T = Trace of Precipitation, MM = Missing Value Source: NWS Daily Summary

Daily Weather History Graph

Daily Weather History Graph

Search for Another Location

Airport or City:

Astronomy

May. 06, 2019 Rise Set
Actual Time 5:48 AM CDT 7:51 PM CDT
Civil Twilight 5:19 AM CDT 8:21 PM CDT
Nautical Twilight 4:43 AM CDT 8:57 PM CDT
Astronomical Twilight 4:04 AM CDT 9:36 PM CDT
Moon 7:10 AM CDT (5/6) 9:48 PM CDT (5/6)
Length of Visible Light 15h 02m
Length of Day
14h 03m
Waxing Crescent, 3% of the Moon is Illuminated
May 6
Waxing Crescent
May 11
First Quarter
May 18
Full
May 26
Last Quarter
Jun 3
New

Hourly Weather History & Observations

Time (CDT) Temp. Dew Point Humidity Pressure Visibility Wind Dir Wind Speed Gust Speed Precip Events Conditions
12:53 AM 52.0 °F 48.0 °F 86% 29.94 in 10.0 mi South 3.5 mph - N/A   Clear
1:53 AM 53.1 °F 48.9 °F 86% 29.94 in 10.0 mi South 4.6 mph - N/A   Clear
2:53 AM 50.0 °F 46.9 °F 89% 29.94 in 10.0 mi South 3.5 mph - N/A   Clear
3:53 AM 55.9 °F 48.9 °F 77% 29.96 in 10.0 mi SSW 5.8 mph - N/A   Clear
4:53 AM 55.9 °F 48.0 °F 75% 29.98 in 10.0 mi SSW 5.8 mph - N/A   Clear
5:53 AM 52.0 °F 48.9 °F 89% 29.99 in 10.0 mi South 4.6 mph - N/A   Clear
6:53 AM 55.0 °F 50.0 °F 83% 29.99 in 10.0 mi South 5.8 mph - N/A   Clear
7:53 AM 61.0 °F 48.9 °F 64% 30.01 in 10.0 mi South 8.1 mph - N/A   Clear
8:53 AM 64.0 °F 48.9 °F 58% 30.02 in 10.0 mi SSW 13.8 mph - N/A   Clear
9:53 AM 68.0 °F 48.9 °F 50% 30.03 in 10.0 mi SSW 11.5 mph - N/A   Clear
10:53 AM 70.0 °F 48.9 °F 47% 30.04 in 10.0 mi South 10.4 mph 20.7 mph N/A   Clear
11:53 AM 72.0 °F 51.1 °F 48% 30.03 in 10.0 mi South 13.8 mph 23.0 mph N/A   Scattered Clouds
12:53 PM 72.0 °F 51.1 °F 48% 30.02 in 10.0 mi South 10.4 mph - N/A   Clear
1:53 PM 73.0 °F 50.0 °F 44% 30.01 in 10.0 mi SW 10.4 mph - N/A   Clear
2:53 PM 73.9 °F 52.0 °F 46% 30.01 in 10.0 mi South 10.4 mph 19.6 mph N/A   Clear
3:53 PM 73.0 °F 51.1 °F 46% 30.00 in 10.0 mi SSW 10.4 mph - N/A   Clear
4:53 PM 73.0 °F 52.0 °F 48% 30.00 in 10.0 mi SSW 8.1 mph - N/A   Clear
5:53 PM 73.0 °F 52.0 °F 48% 30.00 in 10.0 mi SW 8.1 mph - N/A   Clear
6:53 PM 72.0 °F 52.0 °F 49% 30.00 in 10.0 mi SSW 4.6 mph - N/A   Mostly Cloudy
7:53 PM 69.1 °F 54.0 °F 58% 30.03 in 10.0 mi South 4.6 mph - N/A   Mostly Cloudy
8:53 PM 66.9 °F 54.0 °F 63% 30.04 in 10.0 mi SSE 3.5 mph - N/A   Clear
9:53 PM 64.0 °F 53.1 °F 67% 30.04 in 10.0 mi South 5.8 mph - N/A   Clear
10:53 PM 59.0 °F 53.1 °F 81% 30.04 in 10.0 mi SSE 3.5 mph - N/A   Clear
11:53 PM 59.0 °F 54.0 °F 83% 30.04 in 10.0 mi Calm Calm - N/A   Clear